,,PA_Meas_PMT16A,,PR_Meas_QMR101_102,,RH_Meas_QMH101,,SR_Meas_QMS101,,TA_Meas_QMH101,,GenWind,,GenWind,
time,status,PA,status,PR,status,RH,status,SR,status,TA,status,DirAvg,status,SpdAvg,
2009-12-30, 00:00:05,VALID,918.165,VALID,0,VALID,97.5416,VALID,0,VALID,19.6443,VALID,348,VALID,0.787109,
2009-12-30, 00:01:05,VALID,918.192,VALID,0,VALID,97.5111,VALID,0,VALID,19.6218,VALID,348,VALID,1.01563,
2009-12-30, 00:02:05,VALID,918.193,VALID,0,VALID,97.5645,VALID,0.107441,VALID,19.6218,VALID,348,VALID,0.840234,
2009-12-30, 00:03:05,VALID,918.155,VALID,0,VALID,97.5569,VALID,0,VALID,19.6023,VALID,348,VALID,1.12266,
2009-12-30, 00:04:05,VALID,918.178,VALID,0,VALID,97.5797,VALID,0,VALID,19.6023,VALID,348,VALID,1.21602,
2009-12-30, 00:05:05,VALID,918.118,VALID,0,VALID,97.6407,VALID,0,VALID,19.6413,VALID,348,VALID,1.19687,
2009-12-30, 00:06:05,VALID,918.106,VALID,0,VALID,97.6026,VALID,0.107441,VALID,19.6398,VALID,348,VALID,0.8,
2009-12-30, 00:07:05,VALID,918.076,VALID,0,VALID,97.5797,VALID,0.107441,VALID,19.6413,VALID,348,VALID,0.803125,
2009-12-30, 00:08:05,VALID,918.093,VALID,0,VALID,97.6102,VALID,0,VALID,19.6413,VALID,348,VALID,0.972266,
2009-12-30, 00:09:05,VALID,918.055,VALID,0,VALID,97.5797,VALID,0,VALID,19.6218,VALID,348,VALID,1.17891,
2009-12-30, 00:10:05,VALID,918.052,VALID,0,VALID,97.595,VALID,0.107441,VALID,19.6008,VALID,348,VALID,0.814062,
2009-12-30, 00:11:05,VALID,918.013,VALID,0,VALID,97.5416,VALID,0.107441,VALID,19.6218,VALID,348,VALID,1.56016,
2009-12-30, 00:12:05,VALID,918.019,VALID,0,VALID,97.5645,VALID,0.107441,VALID,19.5828,VALID,348,VALID,0.992188,
2009-12-30, 00:13:05,VALID,918.015,VALID,0,VALID,97.5721,VALID,0,VALID,19.5438,VALID,348,VALID,0.796094,
2009-12-30, 00:14:05,VALID,918.005,VALID,0,VALID,97.6331,VALID,0.107441,VALID,19.5618,VALID,348,VALID,0.8375,
2009-12-30, 00:15:05,VALID,917.984,VALID,0,VALID,97.6102,VALID,0.107441,VALID,19.5633,VALID,348,VALID,0.976953,
2009-12-30, 00:16:05,VALID,917.96,VALID,0,VALID,97.656,VALID,0.107441,VALID,19.5633,VALID,348,VALID,0.308594,
2009-12-30, 00:17:05,VALID,917.95,VALID,0,VALID,97.656,VALID,0,VALID,19.5828,VALID,348,VALID,0.552344,
2009-12-30, 00:18:05,VALID,917.918,VALID,0.2,VALID,97.6865,VALID,0,VALID,19.5813,VALID,349,VALID,1.0707,
2009-12-30, 00:19:05,VALID,917.903,VALID,0,VALID,97.6941,VALID,0,VALID,19.6428,VALID,349,VALID,0.85625,
2009-12-30, 00:20:05,VALID,917.906,VALID,0,VALID,97.6941,VALID,0,VALID,19.6413,VALID,349,VALID,0.763672,
2009-12-30, 00:21:05,VALID,917.889,VALID,0,VALID,97.656,VALID,0,VALID,19.6608,VALID,349,VALID,0.942578,
2009-12-30, 00:22:05,VALID,917.897,VALID,0,VALID,97.6255,VALID,0,VALID,19.6428,VALID,349,VALID,0.6125,
2009-12-30, 00:23:05,VALID,917.882,VALID,0,VALID,97.6407,VALID,0,VALID,19.6218,VALID,349,VALID,0.711719,
2009-12-30, 00:24:05,VALID,917.903,VALID,0,VALID,97.6331,VALID,0,VALID,19.6218,VALID,349,VALID,0.704687,
2009-12-30, 00:25:05,VALID,917.861,VALID,0,VALID,97.6712,VALID,0,VALID,19.6608,VALID,349,VALID,0.872266,
2009-12-30, 00:26:05,VALID,917.839,VALID,0,VALID,97.6788,VALID,0,VALID,19.6608,VALID,349,VALID,0.687891,
2009-12-30, 00:27:05,VALID,917.876,VALID,0,VALID,97.7093,VALID,0,VALID,19.6803,VALID,349,VALID,0.880469,
2009-12-30, 00:28:05,VALID,917.831,VALID,0,VALID,97.6788,VALID,0,VALID,19.6998,VALID,349,VALID,0.313672,
2009-12-30, 00:29:05,VALID,917.851,VALID,0,VALID,97.6941,VALID,0,VALID,19.7193,VALID,349,VALID,0.664453,
2009-12-30, 00:30:05,VALID,917.826,VALID,0,VALID,97.7017,VALID,0,VALID,19.7598,VALID,349,VALID,0.810156,
2009-12-30, 00:31:05,VALID,917.819,VALID,0,VALID,97.6712,VALID,0,VALID,19.7388,VALID,349,VALID,0.889063,
2009-12-30, 00:32:05,VALID,917.77,VALID,0,VALID,97.6483,VALID,0,VALID,19.7598,VALID,349,VALID,1.02109,
2009-12-30, 00:33:05,VALID,917.784,VALID,0,VALID,97.6712,VALID,0,VALID,19.7388,VALID,349,VALID,0.941406,
2009-12-30, 00:34:05,VALID,917.766,VALID,0,VALID,97.6788,VALID,0,VALID,19.7388,VALID,349,VALID,0.723047,
2009-12-30, 00:35:05,VALID,917.735,VALID,0,VALID,97.6636,VALID,0,VALID,19.7388,VALID,349,VALID,0.147266,
2009-12-30, 00:36:05,VALID,917.717,VALID,0,VALID,97.6407,VALID,0,VALID,19.7193,VALID,349,VALID,1.10625,
2009-12-30, 00:37:05,VALID,917.702,VALID,0,VALID,97.5721,VALID,0,VALID,19.6608,VALID,2,VALID,0.685547,
2009-12-30, 00:38:05,VALID,917.715,VALID,0,VALID,97.6255,VALID,0,VALID,19.6413,VALID,28,VALID,1.35117,
2009-12-30, 00:39:05,VALID,917.672,VALID,0.2,VALID,97.6483,VALID,0,VALID,19.6608,VALID,46,VALID,1.54766,
2009-12-30, 00:40:05,VALID,917.66,VALID,0,VALID,97.7017,VALID,0,VALID,19.6803,VALID,46,VALID,1.14375,
2009-12-30, 00:41:05,VALID,917.638,VALID,0,VALID,97.6255,VALID,0,VALID,19.6413,VALID,334,VALID,0.871875,
2009-12-30, 00:42:05,VALID,917.591,VALID,0,VALID,97.6026,VALID,0,VALID,19.6218,VALID,334,VALID,1.41562,
2009-12-30, 00:43:05,VALID,917.571,VALID,0,VALID,97.656,VALID,0,VALID,19.5828,VALID,335,VALID,0.949609,
2009-12-30, 00:44:05,VALID,917.596,VALID,0,VALID,97.6178,VALID,0,VALID,19.6038,VALID,335,VALID,1.16719,
2009-12-30, 00:45:05,VALID,917.591,VALID,0,VALID,97.6483,VALID,0,VALID,19.5438,VALID,335,VALID,1.11523,
2009-12-30, 00:46:05,VALID,917.615,VALID,0,VALID,97.6483,VALID,0,VALID,19.5633,VALID,335,VALID,0.921094,
2009-12-30, 00:47:05,VALID,917.581,VALID,0,VALID,97.6483,VALID,0,VALID,19.5243,VALID,335,VALID,0.811328,
2009-12-30, 00:48:05,VALID,917.595,VALID,0,VALID,97.6865,VALID,0,VALID,19.5243,VALID,335,VALID,0.412109,
2009-12-30, 00:49:05,VALID,917.569,VALID,0,VALID,97.6941,VALID,0,VALID,19.5243,VALID,335,VALID,0.350391,
2009-12-30, 00:50:05,VALID,917.592,VALID,0,VALID,97.7246,VALID,0,VALID,19.5633,VALID,335,VALID,1.0957,
2009-12-30, 00:51:05,VALID,917.517,VALID,0,VALID,97.7322,VALID,0,VALID,19.5828,VALID,335,VALID,1.24336,
2009-12-30, 00:52:05,VALID,917.563,VALID,0,VALID,97.7398,VALID,0,VALID,19.6023,VALID,335,VALID,0.895312,
2009-12-30, 00:53:05,VALID,917.539,VALID,0,VALID,97.7169,VALID,0,VALID,19.6008,VALID,335,VALID,1.00156,
2009-12-30, 00:54:05,VALID,917.536,VALID,0,VALID,97.6712,VALID,0,VALID,19.5828,VALID,335,VALID,0.876562,
2009-12-30, 00:55:05,VALID,917.517,VALID,0,VALID,97.6941,VALID,0,VALID,19.5828,VALID,335,VALID,1.22969,
2009-12-30, 00:56:05,VALID,917.518,VALID,0,VALID,97.6865,VALID,0,VALID,19.5438,VALID,14,VALID,1.50859,
2009-12-30, 00:57:05,VALID,917.506,VALID,0,VALID,97.6636,VALID,0,VALID,19.5243,VALID,14,VALID,1.47578,
2009-12-30, 00:58:05,VALID,917.529,VALID,0,VALID,97.6941,VALID,0,VALID,19.5243,VALID,14,VALID,0.635938,
2009-12-30, 00:59:05,VALID,917.531,VALID,0,VALID,97.7322,VALID,0,VALID,19.5243,VALID,14,VALID,1.29414,
2009-12-30, 01:00:05,VALID,917.473,VALID,0,VALID,97.7169,VALID,0,VALID,19.5633,VALID,14,VALID,0.823047,
2009-12-30, 01:01:05,VALID,917.489,VALID,0,VALID,97.6865,VALID,0,VALID,19.5453,VALID,11,VALID,1.91953,
2009-12-30, 01:02:05,VALID,917.474,VALID,0,VALID,97.6407,VALID,0,VALID,19.5048,VALID,360,VALID,1.8793,
2009-12-30, 01:03:05,VALID,917.449,VALID,0,VALID,97.6712,VALID,0,VALID,19.4853,VALID,351,VALID,1.09297,
2009-12-30, 01:04:05,VALID,917.436,VALID,0,VALID,97.7474,VALID,0,VALID,19.4853,VALID,351,VALID,1.11836,
2009-12-30, 01:05:05,VALID,917.403,VALID,0,VALID,97.7169,VALID,0,VALID,19.4658,VALID,351,VALID,1.29961,
2009-12-30, 01:06:05,VALID,917.409,VALID,0,VALID,97.7169,VALID,0,VALID,19.4658,VALID,351,VALID,1.46914,
2009-12-30, 01:07:05,VALID,917.396,VALID,0,VALID,97.7398,VALID,0,VALID,19.4658,VALID,350,VALID,1.26992,
2009-12-30, 01:08:05,VALID,917.397,VALID,0,VALID,97.7322,VALID,0,VALID,19.4658,VALID,350,VALID,1.2875,
2009-12-30, 01:09:05,VALID,917.411,VALID,0,VALID,97.7169,VALID,0,VALID,19.4868,VALID,335,VALID,1.06367,
2009-12-30, 01:10:05,VALID,917.429,VALID,0,VALID,97.6636,VALID,0,VALID,19.4283,VALID,23,VALID,1.15703,
2009-12-30, 01:11:05,VALID,917.428,VALID,0,VALID,97.7322,VALID,0,VALID,19.4074,VALID,24,VALID,1.01211,
2009-12-30, 01:12:05,VALID,917.432,VALID,0,VALID,97.7627,VALID,0,VALID,19.4673,VALID,24,VALID,0.935938,
2009-12-30, 01:13:05,VALID,917.426,VALID,0,VALID,97.7703,VALID,0,VALID,19.4658,VALID,24,VALID,0.437891,
2009-12-30, 01:14:05,VALID,917.429,VALID,0,VALID,97.7627,VALID,0,VALID,19.4853,VALID,24,VALID,1.08711,
2009-12-30, 01:15:05,VALID,917.426,VALID,0,VALID,97.7551,VALID,0.107441,VALID,19.5063,VALID,24,VALID,0.683203,
2009-12-30, 01:16:05,VALID,917.432,VALID,0,VALID,97.7398,VALID,0,VALID,19.4658,VALID,24,VALID,0.426562,
2009-12-30, 01:17:05,VALID,917.405,VALID,0,VALID,97.7322,VALID,0,VALID,19.4463,VALID,24,VALID,0.429688,
2009-12-30, 01:18:05,VALID,917.414,VALID,0,VALID,97.7779,VALID,0,VALID,19.4658,VALID,24,VALID,1.3043,
2009-12-30, 01:19:05,VALID,917.391,VALID,0,VALID,97.7779,VALID,0,VALID,19.4853,VALID,24,VALID,0.861719,
2009-12-30, 01:20:05,VALID,917.342,VALID,0,VALID,97.7551,VALID,0,VALID,19.5063,VALID,24,VALID,0.858594,
2009-12-30, 01:21:05,VALID,917.36,VALID,0,VALID,97.7474,VALID,0,VALID,19.4658,VALID,24,VALID,0.723828,
2009-12-30, 01:22:05,VALID,917.335,VALID,0,VALID,97.7322,VALID,0,VALID,19.4673,VALID,24,VALID,0.955859,
2009-12-30, 01:23:05,VALID,917.302,VALID,0,VALID,97.6865,VALID,0,VALID,19.4074,VALID,24,VALID,1.22617,
2009-12-30, 01:24:05,VALID,917.298,VALID,0,VALID,97.7551,VALID,0,VALID,19.4268,VALID,24,VALID,1.26289,
2009-12-30, 01:25:05,VALID,917.249,VALID,0,VALID,97.7017,VALID,0,VALID,19.4074,VALID,15,VALID,1.61914,
2009-12-30, 01:26:05,VALID,917.216,VALID,0,VALID,97.7551,VALID,0,VALID,19.4074,VALID,26,VALID,1.20156,
2009-12-30, 01:27:05,VALID,917.201,VALID,0,VALID,97.7246,VALID,0,VALID,19.3879,VALID,8,VALID,1.53359,
2009-12-30, 01:28:05,VALID,917.173,VALID,0,VALID,97.7703,VALID,0,VALID,19.3879,VALID,17,VALID,1.24414,
2009-12-30, 01:29:05,VALID,917.144,VALID,0,VALID,97.7398,VALID,0.107441,VALID,19.3684,VALID,17,VALID,1.32813,
2009-12-30, 01:30:05,VALID,917.145,VALID,0,VALID,97.7856,VALID,0,VALID,19.3489,VALID,17,VALID,1.34687,
2009-12-30, 01:31:05,VALID,917.117,VALID,0,VALID,97.7932,VALID,0,VALID,19.3879,VALID,21,VALID,1.06953,
2009-12-30, 01:32:05,VALID,917.078,VALID,0,VALID,97.7779,VALID,0,VALID,19.3684,VALID,21,VALID,1.17617,
2009-12-30, 01:33:05,VALID,917.053,VALID,0,VALID,97.7856,VALID,0,VALID,19.3879,VALID,22,VALID,1.31992,
2009-12-30, 01:34:05,VALID,917.049,VALID,0,VALID,97.7856,VALID,0,VALID,19.4478,VALID,34,VALID,0.873047,
2009-12-30, 01:35:05,VALID,917.003,VALID,0,VALID,97.8008,VALID,0,VALID,19.4463,VALID,37,VALID,1.11563,
2009-12-30, 01:36:05,VALID,917.002,VALID,0,VALID,97.7627,VALID,0,VALID,19.4074,VALID,37,VALID,1.35625,
2009-12-30, 01:37:05,VALID,917.004,VALID,0,VALID,97.7856,VALID,0,VALID,19.4268,VALID,38,VALID,0.741797,
2009-12-30, 01:38:05,VALID,917.02,VALID,0,VALID,97.7551,VALID,0,VALID,19.4268,VALID,38,VALID,0.935156,
2009-12-30, 01:39:05,VALID,916.996,VALID,0,VALID,97.7932,VALID,0,VALID,19.4074,VALID,38,VALID,1.21055,
2009-12-30, 01:40:05,VALID,917.002,VALID,0,VALID,97.7779,VALID,0,VALID,19.4074,VALID,38,VALID,1.24063,
2009-12-30, 01:41:05,VALID,917.011,VALID,0,VALID,97.7779,VALID,0,VALID,19.3879,VALID,38,VALID,1.35664,
2009-12-30, 01:42:05,VALID,917.002,VALID,0,VALID,97.7856,VALID,0,VALID,19.4088,VALID,38,VALID,1.3875,
2009-12-30, 01:43:05,VALID,916.991,VALID,0,VALID,97.7779,VALID,0,VALID,19.4088,VALID,38,VALID,1.36641,
2009-12-30, 01:44:05,VALID,916.969,VALID,0,VALID,97.7779,VALID,0,VALID,19.4268,VALID,38,VALID,1.27695,
2009-12-30, 01:45:05,VALID,916.959,VALID,0,VALID,97.7703,VALID,0,VALID,19.4463,VALID,38,VALID,1.28633,
2009-12-30, 01:46:04,VALID,916.983,VALID,0,VALID,97.7779,VALID,0,VALID,19.4074,VALID,41,VALID,1.63828,
2009-12-30, 01:47:04,VALID,916.963,VALID,0,VALID,97.7551,VALID,0,VALID,19.3684,VALID,41,VALID,1.02266,
2009-12-30, 01:48:04,VALID,916.929,VALID,0,VALID,97.7856,VALID,0,VALID,19.3879,VALID,41,VALID,0.962109,
2009-12-30, 01:49:04,VALID,916.956,VALID,0,VALID,97.7703,VALID,0,VALID,19.4074,VALID,41,VALID,0.834375,
2009-12-30, 01:50:04,VALID,916.961,VALID,0,VALID,97.8008,VALID,0,VALID,19.4283,VALID,41,VALID,1.00547,
2009-12-30, 01:51:04,VALID,916.945,VALID,0,VALID,97.7932,VALID,0,VALID,19.4074,VALID,42,VALID,1.41172,
2009-12-30, 01:52:04,VALID,916.974,VALID,0,VALID,97.7856,VALID,0,VALID,19.4268,VALID,42,VALID,0.760547,
2009-12-30, 01:53:04,VALID,916.941,VALID,0,VALID,97.8084,VALID,0,VALID,19.4463,VALID,42,VALID,0.973437,
2009-12-30, 01:54:04,VALID,916.974,VALID,0,VALID,97.7779,VALID,0,VALID,19.4658,VALID,42,VALID,1.22422,
2009-12-30, 01:55:04,VALID,916.945,VALID,0,VALID,97.8008,VALID,0,VALID,19.4463,VALID,42,VALID,0.59375,
2009-12-30, 01:56:04,VALID,916.919,VALID,0,VALID,97.7779,VALID,0,VALID,19.4463,VALID,42,VALID,0.749609,
2009-12-30, 01:57:04,VALID,916.93,VALID,0,VALID,97.7932,VALID,0.107441,VALID,19.4268,VALID,42,VALID,0.653125,
2009-12-30, 01:58:04,VALID,916.907,VALID,0,VALID,97.7779,VALID,0,VALID,19.4463,VALID,41,VALID,1.27539,
2009-12-30, 01:59:04,VALID,916.893,VALID,0,VALID,97.7551,VALID,0,VALID,19.3879,VALID,42,VALID,1.04609,
2009-12-30, 02:00:04,VALID,916.88,VALID,0,VALID,97.7932,VALID,0.107441,VALID,19.4074,VALID,42,VALID,0.629297,
2009-12-30, 02:01:04,VALID,916.875,VALID,0,VALID,97.7856,VALID,0,VALID,19.4268,VALID,42,VALID,0.451172,
2009-12-30, 02:02:04,VALID,916.844,VALID,0.2,VALID,97.7932,VALID,0,VALID,19.4268,VALID,42,VALID,0.184375,
2009-12-30, 02:03:04,VALID,916.855,VALID,0,VALID,97.7856,VALID,0,VALID,19.4463,VALID,41,VALID,0.488281,
2009-12-30, 02:04:04,VALID,916.866,VALID,0,VALID,97.8084,VALID,0,VALID,19.4463,VALID,41,VALID,0.197266,
2009-12-30, 02:05:04,VALID,916.849,VALID,0,VALID,97.8008,VALID,0,VALID,19.4463,VALID,42,VALID,0.426172,
2009-12-30, 02:06:04,VALID,916.847,VALID,0,VALID,97.7932,VALID,0,VALID,19.4463,VALID,42,VALID,0.902344,
2009-12-30, 02:07:04,VALID,916.834,VALID,0,VALID,97.8084,VALID,0.107441,VALID,19.4478,VALID,42,VALID,1.16328,
2009-12-30, 02:08:04,VALID,916.844,VALID,0,VALID,97.7856,VALID,0.107441,VALID,19.4463,VALID,42,VALID,0.00117188,
2009-12-30, 02:09:04,VALID,916.836,VALID,0,VALID,97.7856,VALID,0,VALID,19.4463,VALID,42,VALID,0.373437,
2009-12-30, 02:10:04,VALID,916.814,VALID,0,VALID,97.7932,VALID,0,VALID,19.4463,VALID,41,VALID,0.669922,
2009-12-30, 02:11:04,VALID,916.758,VALID,0.2,VALID,97.8008,VALID,0,VALID,19.4658,VALID,42,VALID,1.45,
2009-12-30, 02:12:04,VALID,916.725,VALID,0,VALID,97.7932,VALID,0,VALID,19.4463,VALID,43,VALID,1.67344,
2009-12-30, 02:13:04,VALID,916.748,VALID,0,VALID,97.816,VALID,0,VALID,19.4658,VALID,26,VALID,0.999219,
2009-12-30, 02:14:04,VALID,916.749,VALID,0,VALID,97.7856,VALID,0,VALID,19.4463,VALID,26,VALID,1.14453,
2009-12-30, 02:15:04,VALID,916.703,VALID,0,VALID,97.7932,VALID,0,VALID,19.4463,VALID,26,VALID,1.57852,
2009-12-30, 02:16:04,VALID,916.712,VALID,0,VALID,97.8008,VALID,0,VALID,19.4853,VALID,26,VALID,0.209375,
2009-12-30, 02:17:04,VALID,916.697,VALID,0,VALID,97.8084,VALID,0.107441,VALID,19.4644,VALID,26,VALID,0.444922,
2009-12-30, 02:18:04,VALID,916.651,VALID,0,VALID,97.8008,VALID,0.107441,VALID,19.4463,VALID,26,VALID,0.569141,
2009-12-30, 02:19:04,VALID,916.633,VALID,0.2,VALID,97.7932,VALID,0,VALID,19.4463,VALID,26,VALID,0.425391,
2009-12-30, 02:20:04,VALID,916.627,VALID,0,VALID,97.8084,VALID,0,VALID,19.4853,VALID,26,VALID,0.303906,
2009-12-30, 02:21:04,VALID,916.647,VALID,0,VALID,97.8084,VALID,0,VALID,19.5048,VALID,26,VALID,0.835156,
2009-12-30, 02:22:04,VALID,916.628,VALID,0,VALID,97.8084,VALID,0.107441,VALID,19.4853,VALID,26,VALID,0.379297,
2009-12-30, 02:23:04,VALID,916.579,VALID,0,VALID,97.8237,VALID,0,VALID,19.5048,VALID,26,VALID,0.721484,
2009-12-30, 02:24:04,VALID,916.607,VALID,0,VALID,97.8008,VALID,0,VALID,19.4853,VALID,53,VALID,0.725,
2009-12-30, 02:25:04,VALID,916.6,VALID,0.2,VALID,97.8008,VALID,0.107441,VALID,19.4853,VALID,53,VALID,0.250781,
2009-12-30, 02:26:04,VALID,916.578,VALID,0,VALID,97.816,VALID,0,VALID,19.4853,VALID,53,VALID,0.170703,
2009-12-30, 02:27:04,VALID,916.539,VALID,0,VALID,97.816,VALID,0.107441,VALID,19.4449,VALID,53,VALID,0.778516,
2009-12-30, 02:28:04,VALID,916.492,VALID,0,VALID,97.8084,VALID,0,VALID,19.4449,VALID,53,VALID,1.03398,
2009-12-30, 02:29:04,VALID,916.502,VALID,0,VALID,97.8008,VALID,0,VALID,19.4463,VALID,53,VALID,1.44219,
2009-12-30, 02:30:04,VALID,916.511,VALID,0.2,VALID,97.7856,VALID,0,VALID,19.4074,VALID,214,VALID,1.24883,
2009-12-30, 02:31:04,VALID,916.481,VALID,0,VALID,97.8237,VALID,0.107441,VALID,19.4074,VALID,17,VALID,1.16562,
2009-12-30, 02:32:04,VALID,916.485,VALID,0,VALID,97.816,VALID,0.107441,VALID,19.4059,VALID,58,VALID,0.866016,
2009-12-30, 02:33:04,VALID,916.486,VALID,0,VALID,97.8237,VALID,0,VALID,19.4658,VALID,58,VALID,0.375,
2009-12-30, 02:34:04,VALID,916.481,VALID,0,VALID,97.7932,VALID,0,VALID,19.4254,VALID,58,VALID,0.0101562,
2009-12-30, 02:35:04,VALID,916.474,VALID,0.2,VALID,97.816,VALID,0,VALID,19.4463,VALID,58,VALID,0.460547,
2009-12-30, 02:36:04,VALID,916.483,VALID,0,VALID,97.8542,VALID,0,VALID,19.4853,VALID,58,VALID,0.862891,
2009-12-30, 02:37:04,VALID,916.48,VALID,0,VALID,97.8237,VALID,0.107441,VALID,19.4839,VALID,58,VALID,0.2,
2009-12-30, 02:38:04,VALID,916.476,VALID,0,VALID,97.816,VALID,0,VALID,19.4853,VALID,58,VALID,0.192578,
2009-12-30, 02:39:04,VALID,916.432,VALID,0.2,VALID,97.8084,VALID,0,VALID,19.4658,VALID,58,VALID,0.738672,
2009-12-30, 02:40:04,VALID,916.443,VALID,0,VALID,97.7856,VALID,0,VALID,19.4449,VALID,58,VALID,0.925781,
2009-12-30, 02:41:04,VALID,916.424,VALID,0,VALID,97.8084,VALID,0,VALID,19.4449,VALID,58,VALID,0.75625,
2009-12-30, 02:42:04,VALID,916.455,VALID,0,VALID,97.8237,VALID,0.107441,VALID,19.4853,VALID,58,VALID,0.578906,
2009-12-30, 02:43:04,VALID,916.426,VALID,0,VALID,97.816,VALID,0.107441,VALID,19.4839,VALID,58,VALID,0.317578,
2009-12-30, 02:44:04,VALID,916.424,VALID,0,VALID,97.8313,VALID,0.107441,VALID,19.4658,VALID,58,VALID,0.579687,
2009-12-30, 02:45:04,VALID,916.426,VALID,0.2,VALID,97.816,VALID,0.107441,VALID,19.4853,VALID,58,VALID,0.717188,
2009-12-30, 02:46:04,VALID,916.397,VALID,0,VALID,97.8313,VALID,0,VALID,19.4658,VALID,58,VALID,0.728906,
2009-12-30, 02:47:04,VALID,916.392,VALID,0,VALID,97.8237,VALID,0,VALID,19.4853,VALID,58,VALID,0.413281,
2009-12-30, 02:48:04,VALID,916.355,VALID,0,VALID,97.816,VALID,0,VALID,19.4658,VALID,58,VALID,0.491797,
2009-12-30, 02:49:04,VALID,916.385,VALID,0,VALID,97.816,VALID,0,VALID,19.4853,VALID,58,VALID,0.652734,
2009-12-30, 02:50:04,VALID,916.341,VALID,0,VALID,97.8313,VALID,0.107441,VALID,19.4853,VALID,58,VALID,0.319922,
2009-12-30, 02:51:04,VALID,916.362,VALID,0,VALID,97.8313,VALID,0.107441,VALID,19.4853,VALID,58,VALID,0.123828,
2009-12-30, 02:52:04,VALID,916.333,VALID,0,VALID,97.8313,VALID,0.107441,VALID,19.5033,VALID,58,VALID,0.584375,
2009-12-30, 02:53:04,VALID,916.331,VALID,0,VALID,97.816,VALID,0.107441,VALID,19.5243,VALID,58,VALID,0.587109,
2009-12-30, 02:54:04,VALID,916.282,VALID,0,VALID,97.8237,VALID,0,VALID,19.5048,VALID,58,VALID,0.0316406,
2009-12-30, 02:55:04,VALID,916.305,VALID,0,VALID,97.8237,VALID,0,VALID,19.5048,VALID,58,VALID,0.618359,
2009-12-30, 02:56:04,VALID,916.267,VALID,0,VALID,97.8237,VALID,0,VALID,19.5048,VALID,58,VALID,0.403125,
2009-12-30, 02:57:04,VALID,916.251,VALID,0,VALID,97.816,VALID,0,VALID,19.4644,VALID,58,VALID,0.322656,
2009-12-30, 02:58:04,VALID,916.229,VALID,0,VALID,97.8237,VALID,0,VALID,19.4853,VALID,58,VALID,0.197266,
2009-12-30, 02:59:04,VALID,916.22,VALID,0,VALID,97.816,VALID,0.107441,VALID,19.4658,VALID,58,VALID,0.539844,
2009-12-30, 03:00:04,VALID,916.197,VALID,0,VALID,97.8313,VALID,0,VALID,19.5048,VALID,58,VALID,0.707422,
2009-12-30, 03:01:04,VALID,916.162,VALID,0.2,VALID,97.8237,VALID,0.107441,VALID,19.4839,VALID,58,VALID,0.603906,
2009-12-30, 03:02:04,VALID,916.152,VALID,0,VALID,97.8313,VALID,0,VALID,19.5048,VALID,25,VALID,0.826172,
2009-12-30, 03:03:04,VALID,916.132,VALID,0,VALID,97.8084,VALID,0.107441,VALID,19.4658,VALID,25,VALID,0.661719,
2009-12-30, 03:04:04,VALID,916.13,VALID,0,VALID,97.8237,VALID,0.107441,VALID,19.4658,VALID,25,VALID,0.836719,
2009-12-30, 03:05:04,VALID,916.135,VALID,0,VALID,97.8313,VALID,0.107441,VALID,19.4658,VALID,25,VALID,0.773828,
2009-12-30, 03:06:04,VALID,916.072,VALID,0,VALID,97.8237,VALID,0.107441,VALID,19.4853,VALID,25,VALID,0.664453,
2009-12-30, 03:07:04,VALID,916.096,VALID,0,VALID,97.8008,VALID,0,VALID,19.4658,VALID,24,VALID,1.11914,
2009-12-30, 03:08:04,VALID,916.052,VALID,0,VALID,97.816,VALID,0,VALID,19.4658,VALID,24,VALID,0.896484,
2009-12-30, 03:09:04,VALID,916.074,VALID,0,VALID,97.8237,VALID,0.107441,VALID,19.4853,VALID,24,VALID,1.10703,
2009-12-30, 03:10:04,VALID,916.017,VALID,0,VALID,97.816,VALID,0.107441,VALID,19.4658,VALID,24,VALID,0.706641,
2009-12-30, 03:11:04,VALID,916.004,VALID,0,VALID,97.816,VALID,0.107441,VALID,19.4658,VALID,25,VALID,0.765625,
2009-12-30, 03:12:04,VALID,915.962,VALID,0,VALID,97.8237,VALID,0,VALID,19.4463,VALID,24,VALID,0.647656,
2009-12-30, 03:13:04,VALID,915.967,VALID,0,VALID,97.816,VALID,0.107441,VALID,19.4463,VALID,24,VALID,0.854297,
2009-12-30, 03:14:04,VALID,915.942,VALID,0,VALID,97.8237,VALID,0,VALID,19.4268,VALID,9,VALID,1.31094,
2009-12-30, 03:15:04,VALID,915.931,VALID,0,VALID,97.8237,VALID,0,VALID,19.4268,VALID,32,VALID,1.07422,
2009-12-30, 03:16:04,VALID,915.966,VALID,0,VALID,97.8389,VALID,0,VALID,19.4074,VALID,33,VALID,0.723437,
2009-12-30, 03:17:04,VALID,915.913,VALID,0,VALID,97.816,VALID,0,VALID,19.3893,VALID,33,VALID,1.07266,
2009-12-30, 03:18:04,VALID,915.933,VALID,0,VALID,97.8389,VALID,0,VALID,19.4088,VALID,32,VALID,1.27383,
2009-12-30, 03:19:04,VALID,915.89,VALID,0,VALID,97.8389,VALID,0,VALID,19.4298,VALID,33,VALID,1.23984,
2009-12-30, 03:20:04,VALID,915.942,VALID,0,VALID,97.8084,VALID,0,VALID,19.4283,VALID,38,VALID,0.683203,
2009-12-30, 03:21:04,VALID,915.905,VALID,0,VALID,97.8313,VALID,0,VALID,19.3698,VALID,335,VALID,2.08516,
2009-12-30, 03:22:04,VALID,915.912,VALID,0,VALID,97.816,VALID,0,VALID,19.3113,VALID,5,VALID,1.76445,
2009-12-30, 03:23:04,VALID,915.826,VALID,0,VALID,97.816,VALID,0,VALID,19.2918,VALID,21,VALID,3.38242,
2009-12-30, 03:24:04,VALID,915.865,VALID,0,VALID,97.8237,VALID,0,VALID,19.2723,VALID,354,VALID,1.47617,
2009-12-30, 03:25:04,VALID,915.86,VALID,0,VALID,97.816,VALID,0,VALID,19.2738,VALID,353,VALID,1.57187,
2009-12-30, 03:26:04,VALID,915.799,VALID,0,VALID,97.8313,VALID,0,VALID,19.2334,VALID,24,VALID,2.51055,
2009-12-30, 03:27:04,VALID,915.78,VALID,0,VALID,97.8389,VALID,0,VALID,19.2528,VALID,21,VALID,1.95781,
2009-12-30, 03:28:04,VALID,915.811,VALID,0,VALID,97.8465,VALID,0,VALID,19.2528,VALID,43,VALID,1.26797,
2009-12-30, 03:29:04,VALID,915.774,VALID,0,VALID,97.8542,VALID,0,VALID,19.2723,VALID,66,VALID,1.42148,
2009-12-30, 03:30:04,VALID,915.82,VALID,0,VALID,97.8313,VALID,0,VALID,19.2334,VALID,32,VALID,1.65469,
2009-12-30, 03:31:04,VALID,915.805,VALID,0,VALID,97.8389,VALID,0,VALID,19.1929,VALID,9,VALID,1.6043,
2009-12-30, 03:32:04,VALID,915.761,VALID,0,VALID,97.8237,VALID,0.107441,VALID,19.1929,VALID,314,VALID,1.19453,
2009-12-30, 03:33:04,VALID,915.767,VALID,0,VALID,97.8618,VALID,0,VALID,19.1539,VALID,357,VALID,1.36055,
2009-12-30, 03:34:04,VALID,915.735,VALID,0,VALID,97.8618,VALID,0.107441,VALID,19.1734,VALID,36,VALID,1.46914,
2009-12-30, 03:35:04,VALID,915.736,VALID,0,VALID,97.8542,VALID,0.107441,VALID,19.1734,VALID,23,VALID,2.64453,
2009-12-30, 03:36:04,VALID,915.721,VALID,0,VALID,97.877,VALID,0.107441,VALID,19.2124,VALID,34,VALID,1.68594,
2009-12-30, 03:37:04,VALID,915.722,VALID,0,VALID,97.8542,VALID,0.107441,VALID,19.1929,VALID,39,VALID,0.764063,
2009-12-30, 03:38:04,VALID,915.688,VALID,0,VALID,97.8694,VALID,0,VALID,19.2124,VALID,39,VALID,0.760547,
2009-12-30, 03:39:04,VALID,915.678,VALID,0,VALID,97.8465,VALID,0,VALID,19.1929,VALID,39,VALID,0.954687,
2009-12-30, 03:40:04,VALID,915.678,VALID,0,VALID,97.8542,VALID,0.107441,VALID,19.1734,VALID,39,VALID,1.43164,
2009-12-30, 03:41:04,VALID,915.705,VALID,0,VALID,97.877,VALID,0,VALID,19.1734,VALID,39,VALID,1.00234,
2009-12-30, 03:42:04,VALID,915.709,VALID,0,VALID,97.8618,VALID,0.107441,VALID,19.1929,VALID,39,VALID,1.11602,
2009-12-30, 03:43:04,VALID,915.648,VALID,0,VALID,97.8542,VALID,0,VALID,19.1539,VALID,39,VALID,1.63398,